Home   Weather   Angers   Past weeks

Flag for France Past Weather in Angers, Pays de la Loire, France — Yesterday and Last 2 Weeks

50 °F

Mostly cloudy.

Feels Like: 49 °F
Forecast: 42 / 61 °F
Wind: 3 mph from North

Location: Le Mans Airport

Current Time: Oct 24, 2016 at 9:12:50 AM

Latest Report: Oct 24, 2016 at 8:30 AM

Visibility: 4 mi

Pressure: 29.77 "Hg

Humidity: 94%

Dew Point: 48 °F

Location of AngersLocation

Past Weather in Angers — Graph


Angers Temperature Yesterday

Maximum temperature yesterday: 50 °F (at 1:00 PM)
Minimum temperature yesterday: 41 °F (at 7:30 AM)
Average temperature yesterday: 47 °F

High & Low Weather Summary for the Past Weeks

High68 °F (Oct 16, 3:00 PM)100% (Oct 9, 9:00 AM)30.30 "Hg (Oct 9, 9:00 AM)
Low36 °F (Oct 11, 8:00 AM)36% (Oct 12, 3:30 PM)29.62 "Hg (Oct 14, 5:00 AM)
Average51 °F82%30.01 "Hg
* Reported Oct 9 8:00 AM — Oct 24 8:00 AM, Angers, Weather by CustomWeather, © 2016

Note: Actual official high and low records may vary slightly from our data, if they occured in-between our weather recording intervals... More about our weather records


Angers Weather History for the Previous 24 Hours

Scroll right to see more
Time TempWeatherWind HumidityBarometerVisibility
8:00 AM
Mon, Oct 24
50 °FClear.3 mph94%29.77 "Hg4 mi
7:30 AM50 °FClear.1 mph94%29.77 "Hg4 mi
7:00 AM50 °FPartly cloudy.3 mph94%29.77 "Hg4 mi
6:30 AM48 °FFog.2 mph100%29.77 "Hg3 mi
6:00 AM50 °FMostly cloudy.5 mph94%29.77 "Hg4 mi
5:30 AM48 °FFog.3 mph100%29.74 "Hg3 mi
5:00 AM48 °FFog.3 mph94%29.77 "Hg2 mi
4:30 AM48 °FFog.2 mph94%29.77 "Hg2 mi
4:00 AM48 °FFog.1 mph100%29.77 "Hg3 mi
3:30 AM50 °FFog.1 mph94%29.77 "Hg3 mi
3:00 AM50 °FFog.2 mph94%29.77 "Hg3 mi
2:30 AM50 °FFog.No wind94%29.77 "Hg3 mi
2:00 AM50 °FFog.2 mph94%29.77 "Hg3 mi
1:30 AM50 °FOvercast.2 mph100%29.74 "Hg4 mi
1:00 AM50 °FOvercast.2 mph100%29.74 "Hg4 mi
12:30 AM52 °FOvercast.3 mph94%29.74 "Hg4 mi
12:00 AM50 °FOvercast.1 mph94%29.74 "Hg4 mi
11:30 PM
Sun, Oct 23
50 °FOvercast.2 mph94%29.74 "Hg4 mi
11:00 PM50 °FOvercast.2 mph94%29.71 "Hg5 mi
10:30 PM50 °FOvercast.2 mph94%29.71 "Hg5 mi
10:00 PM50 °FOvercast.3 mph94%29.71 "HgN/A
9:30 PM50 °FMostly cloudy.5 mph94%29.71 "Hg5 mi
9:00 PM50 °FPassing clouds.3 mph94%29.68 "Hg5 mi
8:30 PM50 °FPassing clouds.5 mph94%29.68 "Hg6 mi
8:00 PM50 °FMostly cloudy.5 mph94%29.68 "HgN/A
7:30 PM50 °FLight rain. Mostly cloudy.3 mph94%29.68 "Hg4 mi
7:00 PM50 °FMostly cloudy.2 mph94%29.68 "Hg4 mi
6:30 PM50 °FLight rain. Mostly cloudy.5 mph94%29.65 "HgN/A
6:00 PM50 °FLight rain. Mostly cloudy.7 mph94%29.65 "HgN/A
5:30 PM50 °FMostly cloudy.10 mph94%29.62 "HgN/A
5:00 PM50 °FLight rain. Broken clouds.10 mph94%29.62 "Hg4 mi
4:30 PM50 °FCloudy.8 mph94%29.65 "HgN/A
4:00 PM50 °FRain. Broken clouds.7 mph94%29.65 "Hg5 mi
3:30 PM48 °FOvercast.8 mph94%29.65 "HgN/A
3:00 PM48 °FLight rain. Cloudy.10 mph94%29.65 "Hg5 mi
2:30 PM48 °FRain. Broken clouds.7 mph87%29.68 "Hg4 mi
2:00 PM48 °FRain. Mostly cloudy.3 mph87%29.71 "HgN/A
1:30 PM50 °FLight rain. Clear.7 mph82%29.68 "HgN/A
1:00 PM50 °FPartly sunny.9 mph76%29.68 "HgN/A
12:30 PM48 °FMostly cloudy.9 mph82%29.68 "HgN/A
12:00 PM48 °FPassing clouds.8 mph82%29.71 "HgN/A
11:30 AM48 °FPassing clouds.9 mph82%29.71 "HgN/A
11:00 AM46 °FPassing clouds.8 mph82%29.71 "HgN/A
10:30 AM45 °FPassing clouds.7 mph87%29.71 "HgN/A
10:00 AM45 °FPassing clouds.7 mph87%29.71 "HgN/A
9:30 AM43 °FSunny.8 mph87%29.74 "Hg10 mi
9:00 AM43 °FPassing clouds.7 mph87%29.71 "HgN/A
Weather by CustomWeather, © 2016

See weather overviewHow to use our weather pages